STARLINK-33828, 63493

Orbit data source: Space-Track

STARLINK-33828, 63493 is a payload satellite owned by SpaceX/Seattle (US) in LEO that was launched on Mon, 07 Apr 2025 UTC via an FALCON 9 launch vehicle from the Air Force Western Test Range (AFWTR). Payload-class satellites include a variety of spacecraft equipped with specific instruments for various scientific and technological missions. These include communications satellites like Starlink; space stations such as the ISS; scientific satellites like the Hubble; Earth observation satellites from companies like Planet Labs, Umbra, and HawkEye 360; GPS; miniature CubeSats for education and research; and military/defense satellites.

Loading next visibility...
Identifier
63493, 2025-071A
Orbit
LEO
Last TLE update
11 hours ago
Origin
Manufacturer
SpaceX/Seattle
Mission
Operational Commercial Communications
Bus & Motor
STARLINK V2MO, Unknown motor
Mass
575 kg wet, ~530 kg dry
Launch date (UTC)
2025-04-07 (3 months ago)
Launch vehicle
FALCON 9
Launch site
Air Force Western Test Range (AFWTR)
Object type
Payload
Rocket body
Debris
Shape & HBR
Box + 1 Pan, 29 m
Radar Cross Section
41.120 m², Large (>1 m²)

Expand to show TLE details & history

TLE from 11 hours ago
0 STARLINK-33828
1 63493U 25071A   25182.45025452  .00015428  00000-0  53182-3 0  9997
2 63493  53.1602 229.0725 0001036  87.4844 272.6275 15.30206755 14253
Epoch: 2025-07-01T10:48Z
TLE epoch observation values (Epoch: 2025-07-01T10:48:21.99Z)
Latitude
-0.00005°
Longitude
147.2353°
Altitude
476.062 km
Speed
7.629 km/s
True Right ascension
15h 16m 17s
True Declination
0° 00' 00"
Sunlit
Object was in full shadow at epoch
Visualization orbit readout
Latitude
-10.42936°
Longitude
137.23993°
Altitude
478.134 km
Speed
7.627 km/s
Apparent Right ascension
17h 15m 48s
Apparent Declination
-35° 20' 52"
Sunlit
Object is in full shadow
Visualization observer readout
Local Sidereal Time
09:23:38
Azimuth
105.354° ESE
Elevation
-41.709°
Doppler factor
1
Orbital elements
Apogee altitude
476.161 km
Perigee altitude
474.741 km
Semi-major axis
6,853.588 km
Eccentricity
0.0001
Inclination
53.1602°
RAAN
229.0725°
Arg. of periapsis
87.4844°
True anomaly
Unknown
Mean anomaly
272.6275°
Eccentric anomaly
Unknown
Mean motion
3.82531 °/min
Orbital period
94.11 mins
BSTAR
0.00053182
Loading maneuver chart data...
Loading SW <> Apogee altitude chart data...
Loading historical data...
Loading historical data...
Loading historical data...
Loading historical data...
Loading historical data...
Loading historical data...
Loading historical data...

STARLINK-33828 Visibility forecast

Observer location: undefined°, undefined°

Span
Click to sort rows by Start time (UTC) header in descending order
Start Az.
Max El. time (UTC)
Max El. Az.
Max El.
End time (UTC)
End Az.
7 mins2025-07-02 05:47:20.045Z226.099° WSW2025-07-02 05:50:20.045Z209.687° SW43.118°2025-07-02 05:54:20.045Z51.463° ENE
4 mins2025-07-02 07:27:20.045Z303.124° NW2025-07-02 07:29:20.045Z344.344° N17.967°2025-07-02 07:31:20.045Z20.15° NNE
4 mins2025-07-02 10:45:20.045Z344.381° N2025-07-02 10:47:20.045Z20.183° NNE15.569°2025-07-02 10:49:20.045Z55.567° ENE
6 mins2025-07-02 12:23:20.045Z317.594° NNW2025-07-02 12:25:20.045Z352.468° N41.065°2025-07-02 12:29:20.045Z122.301° SE
|